TimeMST,TemperatureF,Dew PointF,Humidity,Sea Level PressureIn,VisibilityMPH,Wind Direction,Wind SpeedMPH,Gust SpeedMPH,PrecipitationIn,Events,Conditions,WindDirDegrees,DateUTC
12:53 AM,62.1,59.0,90,29.88,10.0,Calm,Calm,-,N/A,,Clear,0,2013-08-28 07:53:00
1:53 AM,61.0,57.9,90,29.88,10.0,South,4.6,-,N/A,,Clear,190,2013-08-28 08:53:00
2:53 AM,61.0,57.9,90,29.89,10.0,SSW,3.5,-,N/A,,Clear,200,2013-08-28 09:53:00
3:53 AM,61.0,55.9,83,29.88,10.0,SSW,3.5,-,N/A,,Clear,210,2013-08-28 10:53:00
4:53 AM,59.0,55.9,90,29.90,10.0,South,3.5,-,N/A,,Clear,190,2013-08-28 11:53:00
5:53 AM,57.9,55.9,93,29.93,8.0,SSW,3.5,-,N/A,,Clear,200,2013-08-28 12:53:00
6:53 AM,61.0,57.0,87,29.94,10.0,Calm,Calm,-,N/A,,Clear,0,2013-08-28 13:53:00
7:53 AM,66.9,60.1,79,29.95,10.0,North,3.5,-,N/A,,Partly Cloudy,360,2013-08-28 14:53:00
8:53 AM,72.0,62.1,71,29.95,10.0,North,4.6,-,N/A,,Partly Cloudy,350,2013-08-28 15:53:00
9:53 AM,80.1,57.0,45,29.94,10.0,East,4.6,-,N/A,,Partly Cloudy,80,2013-08-28 16:53:00
10:53 AM,82.0,52.0,35,29.93,10.0,SE,9.2,-,N/A,,Scattered Clouds,130,2013-08-28 17:53:00
11:53 AM,84.9,51.1,31,29.91,10.0,Calm,Calm,-,N/A,,Mostly Cloudy,0,2013-08-28 18:53:00
12:53 PM,87.1,53.1,31,29.89,10.0,East,5.8,-,N/A,,Scattered Clouds,80,2013-08-28 19:53:00
1:53 PM,82.9,55.9,39,29.89,10.0,NNW,8.1,-,N/A,,Mostly Cloudy,340,2013-08-28 20:53:00
2:53 PM,84.9,54.0,34,29.88,10.0,Variable,5.8,-,N/A,,Partly Cloudy,0,2013-08-28 21:53:00
3:53 PM,81.0,52.0,36,29.88,10.0,Variable,4.6,-,0.00,,Mostly Cloudy,0,2013-08-28 22:53:00
4:53 PM,79.0,55.0,44,29.89,10.0,SW,4.6,-,N/A,,Scattered Clouds,230,2013-08-28 23:53:00
5:53 PM,75.9,59.0,56,29.91,10.0,Calm,Calm,-,N/A,,Scattered Clouds,0,2013-08-29 00:53:00
6:53 PM,73.0,61.0,66,29.92,10.0,SSW,4.6,-,N/A,,Clear,200,2013-08-29 01:53:00
7:53 PM,73.9,59.0,59,29.94,10.0,SW,6.9,-,N/A,,Scattered Clouds,220,2013-08-29 02:53:00
8:53 PM,71.1,57.9,63,29.95,10.0,South,5.8,-,N/A,,Mostly Cloudy,190,2013-08-29 03:53:00
9:53 PM,70.0,57.9,65,29.95,10.0,SSW,4.6,-,N/A,,Clear,200,2013-08-29 04:53:00
10:53 PM,68.0,57.9,70,29.95,10.0,SSW,5.8,-,N/A,,Clear,200,2013-08-29 05:53:00
11:53 PM,68.0,57.0,68,29.95,10.0,South,4.6,-,N/A,,Clear,180,2013-08-29 06:53:00